{"data":{"norad_id":62964,"intl_designator":"2025-029S","name":"STARLINK-32887","alt_names":[],"object_type":"PAYLOAD","status":"ACTIVE","operator":null,"country":"US","launch_date":"2025-02-11","launch_site_code":"AFWTR","launch_vehicle":null,"mission":null,"orbit_class":"UNKNOWN","rcs_meters":null,"size_class":null,"mass_kg":null,"dimensions":null,"purposes":["comms"],"wikipedia_slug":null,"has_3d_model":false,"image_url":null,"decayed_at":null,"tle_current":{"epoch":"2026-05-24T17:43:41.289312Z","epoch_age_seconds":108330,"freshness":"FRESH","line1":"1 62964U 25029S   26144.73867233  .00012131  00000+0  42122-3 0  9992","line2":"2 62964  53.1561 236.9024 0001341  85.5174 274.5980 15.30185961 72996","mean_motion":15.30185961,"eccentricity":0.0001341,"inclination_deg":53.1561,"raan_deg":236.9024,"arg_perigee_deg":85.5174,"mean_anomaly_deg":274.598,"bstar":0.00042122,"rev_number":7299,"period_min":94.106209094935,"perigee_km":474.33794752952,"apogee_km":476.17602779701,"semimajor_km":6853.3939876633,"source":"CELESTRAK","updated_at":"2026-05-25T13:38:19.827865Z"}}}